Regional Weather Roundup
Issued by NWS

Home | Current Version | Previous Version | Graphics & Text | Print | Product List | Glossary On
Versions: 1 2 3 4 5 6 7 8 9 10 11 12 13 14 15 16 17 18 19 20 21 22 23 24 25 26 27 28 29 30 31 32 33 34 35 36 37 38 39 40 41 42 43 44 45 46 47 48 49 50
000
ASUS43 KLSX 192107
RWRMO

WEATHER SUMMARY FOR MISSOURI
NATIONAL WEATHER SERVICE SPRINGFIELD MO
400 PM CDT FRI SEP 19 2014

NOTE: "FAIR" INDICATES FEW OR NO CLOUDS BELOW 12,000 FEET WITH NO
       SIGNIFICANT WEATHER AND/OR OBSTRUCTIONS TO VISIBILITY.
       CURRENT SKY AND/OR WEATHER CONDITIONS ARE NOT AVAILABLE FOR
       CHILLICOTHE AND FARMINGTON.

MOZ001>031-035>038-043-044-053-054-192200-
...NORTHERN AND WESTERN MISSOURI...

CITY           SKY/WX    TMP DP  RH WIND       PRES   REMARKS
KANSAS CTY INT PTSUNNY   75  68  78 S13       29.96F
KANSAS C DTWN  CLOUDY    79  68  69 SE9       29.95F
LEE`S SUMMIT   CLOUDY    77  67  71 SE7       29.98F
ST JOSEPH      MOSUNNY   77  68  73 S15       29.93F
CHILLICOTHE      N/A     77  66  68 SE9       29.97F
KIRKSVILLE     SUNNY     76  61  59 S14       29.99F

$$
MOZ066>068-077>081-088>096-101>105-192200-
...SOUTHWEST MISSOURI...

CITY           SKY/WX    TMP DP  RH WIND       PRES   REMARKS
SPRINGFIELD    PTSUNNY   78  63  59 S7        30.02S
JOPLIN         CLOUDY    80  68  66 SW8       30.00F

$$
MOZ032>034-039>042-045>050-055>058-069>072-192200-
...CENTRAL MISSOURI...

CITY           SKY/WX    TMP DP  RH WIND       PRES   REMARKS
COLUMBIA       MOSUNNY   77  62  59 S10       30.01F
JEFFERSON CITY SUNNY     79  60  52 S7        30.00F
ROLLA          HAZE      75  59  57 S8        30.01F VSB 1/4
SEDALIA        MOSUNNY   78  64  61 S9        30.00F
WHITEMAN AFB   MOSUNNY   78  67  67 S10       29.98F
OSAGE BEACH    PTSUNNY   79  63  57 SE5       30.01F

$$
MOZ051-052-059>065-192200-
...EAST CENTRAL MISSOURI...

CITY           SKY/WX    TMP DP  RH WIND       PRES   REMARKS
ST LOUIS INTL  MOSUNNY   79  57  46 S10       30.03F
SPIRIT OF STL  MOSUNNY   77  58  51 E6        30.01F
ST CHARLES     MOSUNNY   78  57  48 S14       30.01F

$$
MOZ072>076-082>087-097>100-106>115-192200-
...SOUTH CENTRAL AND SOUTHEAST MISSOURI...

CITY           SKY/WX    TMP DP  RH WIND       PRES   REMARKS
CAPE GIRARDEAU SUNNY     79  57  46 VRB3      30.01F
FARMINGTON     SUNNY     79  57  47 S7        30.05F
POPLAR BLUFF   SUNNY     82  58  43 CALM      30.00F
WEST PLAINS    SUNNY     78  61  55 S8        30.04F

$$


USA.gov is the U.S. government's official web portal to all federal, state and local government web resources and services.